TimeMDT,TemperatureF,Dew PointF,Humidity,Sea Level PressureIn,VisibilityMPH,Wind Direction,Wind SpeedMPH,Gust SpeedMPH,PrecipitationIn,Events,Conditions,WindDirDegrees,DateUTC
12:52 AM,46.9,32.0,56,30.00,10.0,NNW,11.5,-,N/A,,Clear,340,2012-10-11 06:52:00
1:52 AM,45.0,33.1,63,30.01,10.0,North,19.6,-,N/A,,Clear,360,2012-10-11 07:52:00
2:52 AM,43.0,33.1,68,30.04,10.0,North,15.0,-,N/A,,Clear,10,2012-10-11 08:52:00
3:52 AM,39.0,33.1,79,30.08,10.0,North,16.1,-,N/A,,Clear,360,2012-10-11 09:52:00
4:52 AM,37.0,32.0,82,30.12,10.0,North,15.0,-,N/A,,Partly Cloudy,10,2012-10-11 10:52:00
5:24 AM,37.4,32.0,81,30.14,10.0,North,16.1,-,N/A,,Mostly Cloudy,10,2012-10-11 11:24:00
5:52 AM,37.0,32.0,82,30.17,8.0,NNE,15.0,-,N/A,,Overcast,30,2012-10-11 11:52:00
6:25 AM,35.6,30.2,81,30.17,10.0,NNE,13.8,-,N/A,,Overcast,20,2012-10-11 12:25:00
6:52 AM,36.0,30.9,82,30.23,10.0,North,13.8,-,N/A,,Overcast,10,2012-10-11 12:52:00
7:31 AM,35.6,30.2,81,30.21,10.0,North,10.4,-,N/A,,Overcast,10,2012-10-11 13:31:00
7:52 AM,35.1,30.0,82,30.28,10.0,North,9.2,-,N/A,,Partly Cloudy,10,2012-10-11 13:52:00
8:52 AM,37.0,30.0,76,30.30,10.0,NNE,9.2,-,N/A,,Overcast,20,2012-10-11 14:52:00
9:44 AM,37.4,30.2,75,30.28,10.0,NNE,9.2,-,N/A,,Overcast,30,2012-10-11 15:44:00
9:52 AM,37.9,30.0,73,30.34,10.0,NNE,8.1,-,N/A,,Overcast,30,2012-10-11 15:52:00
10:32 AM,39.2,30.2,70,30.30,10.0,NNE,8.1,-,N/A,,Overcast,20,2012-10-11 16:32:00
10:52 AM,39.9,28.9,65,30.34,10.0,Variable,4.6,-,N/A,,Overcast,0,2012-10-11 16:52:00
11:24 AM,39.2,28.4,65,30.30,10.0,Variable,6.9,-,N/A,,Overcast,0,2012-10-11 17:24:00
11:52 AM,42.1,28.9,60,30.32,10.0,East,4.6,-,N/A,,Overcast,100,2012-10-11 17:52:00
12:52 PM,42.1,28.9,60,30.33,10.0,East,4.6,-,N/A,,Overcast,90,2012-10-11 18:52:00
1:52 PM,44.6,28.4,53,30.27,10.0,Variable,4.6,-,N/A,,Overcast,0,2012-10-11 19:52:00
2:52 PM,45.0,28.9,53,30.31,10.0,East,4.6,-,N/A,,Overcast,100,2012-10-11 20:52:00
3:52 PM,46.9,28.9,50,30.30,10.0,ESE,4.6,-,N/A,,Partly Cloudy,110,2012-10-11 21:52:00
4:52 PM,46.4,28.4,50,30.25,10.0,SSE,8.1,-,N/A,,Clear,150,2012-10-11 22:52:00
5:52 PM,43.0,28.0,56,30.32,10.0,SE,9.2,-,N/A,,Scattered Clouds,130,2012-10-11 23:52:00
6:52 PM,39.2,28.4,65,30.27,10.0,SSE,6.9,-,N/A,,Overcast,150,2012-10-12 00:52:00
7:52 PM,37.0,27.0,67,30.35,10.0,SSE,5.8,-,N/A,,Overcast,150,2012-10-12 01:52:00
9:52 PM,32.0,26.1,79,30.36,10.0,SE,6.9,-,N/A,,Clear,140,2012-10-12 03:52:00
10:52 PM,30.2,24.8,80,30.27,10.0,SSE,6.9,-,N/A,,Clear,150,2012-10-12 04:52:00
11:52 PM,28.0,24.1,85,30.33,10.0,South,8.1,-,N/A,,Clear,170,2012-10-12 05:52:00